Flag for Azerbaijan Weather past 2 weeks in Ganja, Azerbaijan

Now
70 °F

Partly sunny.


Feels Like: 70 °F
Forecast: 63 / 73 °F
Wind: 30 mph from East

Location: Gyanca Airport

Current Time: Sep 18, 2014 at 2:49:22 PM

Latest Report: Sep 18, 2014 at 2:30 PM


Visibility: N/A

Pressure: 30.04 "Hg

Humidity: 60%

Dew point: 55 °F

Location of GanjaLocation

Historic Weather in Ganja — Graph

°F

Ganja temperature yesterday

Maximum temperature yesterday: 81 °F (at 3:30 PM)
Minimum temperature yesterday: 66 °F (at 3:30 AM)
Average temperature yesterday: 72 °F

Past Weeks' High & Low Weather Summary

 TemperatureHumidityPressure
High91 °F (Sep 10, 5:30 PM)100% (Sep 5, 4:00 AM)30.07 "Hg (Sep 5, 4:00 AM)
Low63 °F (Sep 16, 7:00 AM)26% (Sep 11, 6:00 PM)29.71 "Hg (Sep 4, 7:00 PM)
Average76 °F58%29.87 "Hg
* Reported Sep 3 1:00 PM — Sep 18 1:30 PM, Ganja, Weather by CustomWeather, © 2014

Note: Actual official high and low records may vary slightly from our data, if they occured in-between our weather recording intervals... More about our weather records

Advertising

Ganja weather history for previous 24 hours

 ConditionsComfort  
Time TempWeatherWind HumidityBarometerVisibility
1:30 PM
Sep 18
70 °FPartly sunny.28 mph57%30.07 "HgN/A
1:00 PM70 °FPartly sunny.26 mph57%30.07 "HgN/A
12:30 PM70 °FPartly sunny.23 mph57%30.07 "HgN/A
12:00 PM70 °FPartly sunny.25 mph57%30.07 "HgN/A
11:30 AM72 °FPartly sunny.26 mph53%30.04 "HgN/A
11:00 AM70 °FPartly sunny.20 mph57%30.07 "HgN/A
10:30 AM70 °FPartly sunny.17 mph57%30.04 "HgN/A
10:00 AM68 °FPartly sunny.18 mph60%30.04 "HgN/A
9:30 AM68 °FPassing clouds.13 mph56%30.04 "HgN/A
9:00 AM66 °FPassing clouds.9 mph60%30.04 "HgN/A
8:30 AM66 °FPassing clouds.8 mph73%30.04 "HgN/A
8:00 AM66 °FPassing clouds.3 mph73%30.01 "HgN/A
7:30 AM66 °FPassing clouds.6 mph73%30.01 "HgN/A
7:00 AM66 °FPassing clouds.9 mph73%30.01 "HgN/A
6:30 AM66 °FPassing clouds.10 mph73%30.01 "HgN/A
6:00 AM66 °FPassing clouds.8 mph73%30.01 "HgN/A
5:30 AM66 °FPassing clouds.6 mph73%29.98 "HgN/A
5:00 AM66 °FPassing clouds.6 mph73%29.98 "HgN/A
4:30 AM66 °FPassing clouds.8 mph73%29.98 "HgN/A
4:00 AM66 °FPassing clouds.12 mph73%29.95 "HgN/A
3:30 AM68 °FPassing clouds.5 mph69%29.95 "HgN/A
3:00 AM68 °FPassing clouds.13 mph69%29.95 "HgN/A
2:30 AM70 °FPassing clouds.14 mph60%29.95 "HgN/A
2:00 AM70 °FLight rain. Passing clouds.16 mph60%29.95 "HgN/A
1:30 AM70 °FPassing clouds.21 mph60%29.92 "HgN/A
1:00 AM70 °FPassing clouds.22 mph60%29.95 "HgN/A
12:30 AM70 °FPassing clouds.22 mph60%29.92 "HgN/A
12:00 AM70 °FPassing clouds.20 mph60%29.92 "HgN/A
11:30 PM
Sep 17
70 °FPassing clouds.18 mph60%29.92 "HgN/A
11:00 PM70 °FPassing clouds.18 mph60%29.92 "HgN/A
10:30 PM72 °FPassing clouds.16 mph61%29.92 "HgN/A
10:00 PM70 °FPassing clouds.14 mph69%29.92 "HgN/A
9:30 PM70 °FScattered clouds.13 mph69%29.92 "HgN/A
9:00 PM70 °FScattered clouds.13 mph69%29.89 "HgN/A
8:30 PM72 °FScattered clouds.9 mph65%29.89 "HgN/A
8:00 PM75 °FScattered clouds.8 mph54%29.89 "HgN/A
7:30 PM77 °FScattered clouds.10 mph51%29.89 "HgN/A
7:00 PM77 °FScattered clouds.15 mph51%29.89 "HgN/A
6:30 PM77 °FScattered clouds.17 mph51%29.89 "HgN/A
6:00 PM79 °FScattered clouds.16 mph45%29.89 "HgN/A
5:30 PM81 °FScattered clouds.14 mph37%29.89 "HgN/A
5:00 PM81 °FPassing clouds.12 mph39%29.89 "HgN/A
4:30 PM81 °FPassing clouds.10 mph37%29.89 "HgN/A
4:00 PM81 °FPassing clouds.10 mph34%29.89 "HgN/A
3:30 PM81 °FPassing clouds.7 mph42%29.89 "HgN/A
3:00 PM79 °FPassing clouds.6 mph42%29.89 "HgN/A
2:30 PM79 °FPassing clouds.6 mph42%29.89 "HgN/A
2:00 PM77 °FPassing clouds.6 mph44%29.89 "HgN/A
Weather by CustomWeather, © 2014

See weather overviewHow to use our weather pages